Flag for Norway Weather past 2 weeks in Fagernes, Norway

Now
57 °F

Partly sunny.


Feels Like: 55 °F
Forecast: 52 / 68 °F
Wind: 9 mph from Southwest

Location: Fagernes Leirin

Current Time: Aug 1, 2014 at 12:44:38 PM

Latest Report: Aug 1, 2014 at 11:50 AM


Visibility: N/A

Pressure: 29.77 "Hg

Humidity: 55%

Dew point: 41 °F

Location of FagernesLocation

Historic Weather in Fagernes — Graph

°F

Fagernes temperature yesterday

Maximum temperature yesterday: 61 °F (at 2:20 PM)
Minimum temperature yesterday: 50 °F (at 7:20 AM)
Average temperature yesterday: 57 °F

Past Weeks' High & Low Weather Summary

 TemperatureHumidityPressure
High81 °F (Jul 23, 3:50 PM)94% (Jul 17, 5:20 PM)30.39 "Hg (Jul 17, 5:20 PM)
Low50 °F (Jul 31, 7:20 AM)26% (Jul 24, 12:50 PM)29.62 "Hg (Jul 30, 4:50 PM)
Average65 °F58%30.06 "Hg
* Reported Jul 17 10:20 AM — Aug 1 10:50 AM, Fagernes, Weather by CustomWeather, © 2014

Note: Actual official high and low records may vary slightly from our data, if they occured in-between our weather recording intervals... More about our weather records

Advertising

Fagernes weather history for previous 24 hours

 ConditionsComfort  
Time TempWeatherWind HumidityBarometerVisibility
10:50 AM
Aug 1
55 °FPartly sunny.10 mph63%29.74 "HgN/A
10:20 AM57 °FScattered clouds.12 mph59%29.74 "HgN/A
9:50 AM55 °FScattered clouds.7 mph63%29.74 "HgN/A
9:20 AM55 °FPassing clouds.7 mph63%29.74 "HgN/A
8:50 AM54 °FPassing clouds.8 mph72%29.71 "HgN/A
8:20 AM54 °FScattered clouds.7 mph67%29.71 "HgN/A
7:50 AM52 °FScattered clouds.3 mph72%29.71 "HgN/A
7:20 AM52 °FScattered clouds.No wind72%29.71 "HgN/A
5:20 PM
Jul 31
59 °FPartly sunny.8 mph51%29.68 "HgN/A
4:20 PM59 °FPartly sunny.8 mph51%29.68 "HgN/A
3:50 PM59 °FPartly sunny.6 mph55%29.68 "HgN/A
3:20 PM59 °FPartly sunny.6 mph51%29.68 "HgN/A
2:50 PM59 °FPartly sunny.7 mph51%29.68 "HgN/A
2:20 PM61 °FPartly sunny.6 mph48%29.68 "HgN/A
1:50 PM59 °FPartly sunny.8 mph48%29.65 "HgN/A
1:20 PM59 °FScattered clouds.7 mph48%29.65 "HgN/A
12:50 PM59 °FScattered clouds.6 mph48%29.65 "HgN/A
Weather by CustomWeather, © 2014

See weather overviewHow to use our weather pages